When you browse on this site, cookies collect data to enhance your experience and personalize the content and advertising you see.
Visit our Privacy Policy to learn more. By continuing to use the site, you agree to this use of cookies and data.

Meteo pe oră la Ouahigouya

Astăzi, 22 Septembrie, Marţi

Timp Temperatura Precipitaţii Vânt Presiune Umiditate
00:00 +29°C° 0 mm 3 m/s 730 mmHg 59%
01:00 +29°C° 0 mm 3 m/s 729 mmHg 61%
02:00 +28°C° 0 mm 3 m/s 729 mmHg 62%
03:00 +28°C° 0 mm 3 m/s 729 mmHg 64%
04:00 +27°C° 0 mm 3 m/s 729 mmHg 66%
05:00 +27°C° 0 mm 3 m/s 729 mmHg 69%
06:00 +27°C° 0 mm 3 m/s 730 mmHg 74%
07:00 +28°C° 0 mm 3 m/s 730 mmHg 68%
08:00 +30°C° 0 mm 3 m/s 731 mmHg 63%
09:00 +32°C° 0 mm 4 m/s 731 mmHg 58%
10:00 +34°C° 0 mm 4 m/s 731 mmHg 52%
11:00 +35°C° 0 mm 3 m/s 730 mmHg 47%
12:00 +36°C° 0 mm 3 m/s 730 mmHg 41%
13:00 +37°C° 0 mm 2 m/s 729 mmHg 38%
14:00 +38°C° 0 mm 2 m/s 729 mmHg 35%
15:00 +37°C° 0 mm 1 m/s 728 mmHg 32%
16:00 +37°C° 0 mm 1 m/s 728 mmHg 33%
17:00 +37°C° 0 mm 2 m/s 728 mmHg 35%
18:00 +37°C° 0 mm 2 m/s 728 mmHg 37%
19:00 +34°C° 0.8 mm 4 m/s 729 mmHg 48%
20:00 +30°C° 0.8 mm 6 m/s 729 mmHg 60%
21:00 +28°C° 0.8 mm 9 m/s 730 mmHg 71%
22:00 +28°C° 0.3 mm 7 m/s 730 mmHg 69%
23:00 +28°C° 0.3 mm 4 m/s 730 mmHg 68%

Mâine, 23 Septembrie, Miercuri

Timp Temperatura Precipitaţii Vânt Presiune Umiditate
00:00 +28°C° 0.3 mm 2 m/s 730 mmHg 66%
01:00 +27°C° 0.1 mm 2 m/s 730 mmHg 67%
02:00 +27°C° 0.1 mm 3 m/s 729 mmHg 68%
03:00 +27°C° 0.1 mm 3 m/s 729 mmHg 70%
04:00 +27°C° 0 mm 2 m/s 729 mmHg 72%
05:00 +26°C° 0 mm 2 m/s 729 mmHg 73%
06:00 +26°C° 0 mm 1 m/s 729 mmHg 75%
07:00 +27°C° 0 mm 1 m/s 730 mmHg 69%
08:00 +29°C° 0 mm 1 m/s 730 mmHg 63%
09:00 +30°C° 0 mm 1 m/s 731 mmHg 57%
10:00 +32°C° 0 mm 2 m/s 731 mmHg 51%
11:00 +35°C° 0 mm 3 m/s 730 mmHg 44%
12:00 +37°C° 0 mm 4 m/s 730 mmHg 38%
13:00 +37°C° 0 mm 5 m/s 729 mmHg 37%
14:00 +37°C° 0 mm 5 m/s 729 mmHg 36%
15:00 +39°C° 0 mm 6 m/s 728 mmHg 35%
16:00 +37°C° 0 mm 5 m/s 728 mmHg 39%
17:00 +35°C° 0 mm 4 m/s 728 mmHg 43%
18:00 +34°C° 0 mm 4 m/s 728 mmHg 47%
19:00 +34°C° 0 mm 3 m/s 729 mmHg 49%
20:00 +33°C° 0 mm 3 m/s 730 mmHg 51%
21:00 +33°C° 0 mm 3 m/s 730 mmHg 53%
22:00 +31°C° 0 mm 3 m/s 730 mmHg 56%
23:00 +31°C° 0 mm 3 m/s 730 mmHg 58%

Poimâine, 24 Septembrie, Joi

Timp Temperatura Precipitaţii Vânt Presiune Umiditate
00:00 +30°C° 0 mm 3 m/s 730 mmHg 60%
01:00 +30°C° 0 mm 3 m/s 730 mmHg 63%
02:00 +29°C° 0 mm 3 m/s 729 mmHg 66%
03:00 +29°C° 0 mm 2 m/s 729 mmHg 68%
04:00 +28°C° 0 mm 2 m/s 729 mmHg 71%
05:00 +28°C° 0 mm 3 m/s 729 mmHg 73%
06:00 +28°C° 0 mm 3 m/s 730 mmHg 76%
07:00 +29°C° 0 mm 3 m/s 730 mmHg 71%
08:00 +30°C° 0 mm 4 m/s 731 mmHg 66%
09:00 +32°C° 0 mm 4 m/s 731 mmHg 61%
10:00 +34°C° 0 mm 4 m/s 731 mmHg 56%
11:00 +35°C° 0 mm 4 m/s 730 mmHg 50%
12:00 +37°C° 0 mm 4 m/s 730 mmHg 45%
13:00 +37°C° 0 mm 2 m/s 730 mmHg 42%
14:00 +37°C° 0 mm 1 m/s 729 mmHg 39%
15:00 +36°C° 0 mm 0 m/s 728 mmHg 36%
16:00 +35°C° 0 mm 0 m/s 728 mmHg 37%
17:00 +37°C° 0 mm 1 m/s 728 mmHg 38%
18:00 +37°C° 0 mm 2 m/s 728 mmHg 39%
19:00 +36°C° 0.1 mm 2 m/s 728 mmHg 44%
20:00 +35°C° 0.1 mm 3 m/s 729 mmHg 49%
21:00 +33°C° 0.1 mm 4 m/s 729 mmHg 55%
22:00 +33°C° 0 mm 4 m/s 729 mmHg 57%
23:00 +32°C° 0 mm 4 m/s 729 mmHg 60%

25 Septembrie, Vineri

Timp Temperatura Precipitaţii Vânt Presiune Umiditate
00:00 +30°C° 0 mm 5 m/s 729 mmHg 62%
01:00 +30°C° 0 mm 4 m/s 729 mmHg 64%
02:00 +29°C° 0 mm 4 m/s 729 mmHg 67%
03:00 +29°C° 0 mm 4 m/s 728 mmHg 69%
04:00 +28°C° 0 mm 4 m/s 729 mmHg 71%
05:00 +28°C° 0 mm 4 m/s 729 mmHg 72%
06:00 +28°C° 0 mm 4 m/s 729 mmHg 74%
07:00 +29°C° 0 mm 4 m/s 730 mmHg 68%
08:00 +32°C° 0 mm 5 m/s 730 mmHg 63%
09:00 +33°C° 0 mm 5 m/s 731 mmHg 57%
10:00 +35°C° 0 mm 5 m/s 731 mmHg 52%
11:00 +36°C° 0 mm 5 m/s 730 mmHg 46%
12:00 +39°C° 0 mm 6 m/s 730 mmHg 41%
13:00 +39°C° 0 mm 5 m/s 729 mmHg 38%
14:00 +40°C° 0 mm 4 m/s 728 mmHg 35%
15:00 +39°C° 0 mm 3 m/s 728 mmHg 33%
16:00 +38°C° 0 mm 3 m/s 728 mmHg 36%
17:00 +37°C° 0 mm 4 m/s 727 mmHg 40%
18:00 +36°C° 0 mm 4 m/s 727 mmHg 44%
19:00 +35°C° 0 mm 4 m/s 728 mmHg 50%
20:00 +34°C° 0 mm 5 m/s 728 mmHg 56%
21:00 +32°C° 0 mm 5 m/s 728 mmHg 62%
22:00 +32°C° 0 mm 5 m/s 728 mmHg 66%
23:00 +30°C° 0 mm 6 m/s 728 mmHg 69%

26 Septembrie, Sâmbătă

Timp Temperatura Precipitaţii Vânt Presiune Umiditate
00:00 +29°C° 0 mm 6 m/s 728 mmHg 72%
01:00 +28°C° 0 mm 5 m/s 728 mmHg 73%
02:00 +28°C° 0 mm 5 m/s 728 mmHg 74%
03:00 +28°C° 0 mm 4 m/s 727 mmHg 75%
04:00 +28°C° 0 mm 4 m/s 727 mmHg 75%
05:00 +28°C° 0 mm 4 m/s 727 mmHg 74%
06:00 +27°C° 0 mm 4 m/s 728 mmHg 74%
07:00 +29°C° 0 mm 5 m/s 728 mmHg 68%
08:00 +30°C° 0 mm 5 m/s 729 mmHg 62%
09:00 +32°C° 0 mm 5 m/s 729 mmHg 56%
10:00 +34°C° 0.1 mm 6 m/s 729 mmHg 51%
11:00 +35°C° 0.1 mm 6 m/s 729 mmHg 47%
12:00 +36°C° 0.1 mm 6 m/s 729 mmHg 42%
13:00 +36°C° 0 mm 6 m/s 729 mmHg 42%
14:00 +38°C° 0 mm 6 m/s 728 mmHg 43%
15:00 +38°C° 0 mm 6 m/s 727 mmHg 43%
16:00 +36°C° 0 mm 5 m/s 727 mmHg 47%
17:00 +35°C° 0 mm 5 m/s 727 mmHg 51%
18:00 +34°C° 0 mm 4 m/s 727 mmHg 55%
19:00 +33°C° 0 mm 4 m/s 727 mmHg 57%
20:00 +32°C° 0 mm 4 m/s 728 mmHg 60%
21:00 +32°C° 0 mm 4 m/s 728 mmHg 62%
22:00 +30°C° 0 mm 4 m/s 728 mmHg 64%
23:00 +30°C° 0 mm 4 m/s 728 mmHg 66%

27 Septembrie, Duminică

Timp Temperatura Precipitaţii Vânt Presiune Umiditate
00:00 +29°C° 0 mm 4 m/s 728 mmHg 68%
01:00 +29°C° 0 mm 5 m/s 728 mmHg 70%
02:00 +28°C° 0 mm 5 m/s 727 mmHg 72%
03:00 +28°C° 0 mm 5 m/s 727 mmHg 74%
04:00 +27°C° 0 mm 5 m/s 727 mmHg 74%
05:00 +27°C° 0 mm 5 m/s 727 mmHg 74%
06:00 +27°C° 0 mm 5 m/s 727 mmHg 74%
07:00 +28°C° 0 mm 5 m/s 728 mmHg 69%
08:00 +30°C° 0 mm 5 m/s 729 mmHg 63%
09:00 +32°C° 0 mm 5 m/s 729 mmHg 58%
10:00 +33°C° 0 mm 5 m/s 729 mmHg 52%
11:00 +35°C° 0 mm 5 m/s 729 mmHg 46%
12:00 +36°C° 0 mm 4 m/s 728 mmHg 41%
13:00 +37°C° 0 mm 4 m/s 728 mmHg 38%
14:00 +37°C° 0 mm 3 m/s 727 mmHg 36%
15:00 +38°C° 0 mm 3 m/s 727 mmHg 34%
16:00 +37°C° 0 mm 3 m/s 727 mmHg 36%
17:00 +36°C° 0 mm 3 m/s 727 mmHg 38%
18:00 +35°C° 0 mm 3 m/s 727 mmHg 40%
19:00 +35°C° 0 mm 3 m/s 727 mmHg 43%
20:00 +34°C° 0 mm 4 m/s 728 mmHg 46%
21:00 +33°C° 0 mm 4 m/s 728 mmHg 49%
22:00 +32°C° 0 mm 4 m/s 728 mmHg 52%
23:00 +31°C° 0 mm 3 m/s 728 mmHg 54%
Arată mai mult